UAE214 KMIA-OMDB

Flight info

Callsign UAE214
Flight time N/A
Altitude 29000
Route FOLZZ3 SUMRS/M082F290 M204 FLUPS DCT JNFOX DCT KINER DCT DRYED M201 NOVOK/M082F310 M201 CARAC/N0479F310 DCT NEEKO/M082F320 NATZ GISTI/N0483F330 DCT DUB DCT LIFFY UL975 WAL M16 DOLAS L603 LAMSO DCT AMSAN DCT TOLTA DCT NOMKA DCT OMELO/N0475F350 DCT GOLOP DCT ODNEM DCT BERVA DCT BALAP DCT BUDOP DCT RONBU DCT ARTAT UP975 EZS UL614 OTKEP UM688 RATVO DCT SISIN/N0481F370 UM688 SIDAD P975 SESRU M677 OBNET/N0476F350 M677 VUTEB
Aircraft B77W/H-SDE1E2E3FGHIJ2J3J4J5M1RWXY/LB1D1

Departure

Time 2026-04-30 21:27
Airport Miami International Airport (KMIA)

Arrival

Time N/A
Airport Dubai International Airport (OMDB)
Time Latitude Longitude Altitude Speed Heading
2026-04-30 21:27 25.84939 -79.96498 8805 ft 293 kts 47°
2026-04-30 21:27 25.86268 -79.94811 9254 ft 299 kts 47°
2026-04-30 21:28 25.88933 -79.91419 9933 ft 294 kts 47°
2026-04-30 21:28 25.90304 -79.89677 10017 ft 305 kts 47°
2026-04-30 21:28 25.93073 -79.86154 10017 ft 305 kts 47°
2026-04-30 21:29 25.94492 -79.84347 10135 ft 318 kts 47°
2026-04-30 21:29 25.99214 -79.78329 10638 ft 368 kts 47°
2026-04-30 21:30 26.02629 -79.73967 11560 ft 380 kts 47°
2026-04-30 21:31 26.07895 -79.67233 13298 ft 389 kts 46°
2026-04-30 21:31 26.11445 -79.62629 14327 ft 396 kts 50°
2026-04-30 21:32 26.14669 -79.57581 15348 ft 403 kts 53°
2026-04-30 21:32 26.16253 -79.54991 15861 ft 406 kts 53°
2026-04-30 21:32 26.17853 -79.52401 16342 ft 409 kts 53°
2026-04-30 21:32 26.19488 -79.49787 16854 ft 412 kts 52°
2026-04-30 21:33 26.21143 -79.47162 17361 ft 415 kts 52°
2026-04-30 21:33 26.24496 -79.41870 18368 ft 421 kts 52°
2026-04-30 21:33 26.26187 -79.39199 18769 ft 424 kts 52°
2026-04-30 21:34 26.27895 -79.36500 19205 ft 427 kts 52°
2026-04-30 21:34 26.31648 -79.31385 20024 ft 428 kts 42°
2026-04-30 21:34 26.33773 -79.29051 20457 ft 429 kts 40°
2026-04-30 21:35 26.35933 -79.26759 20900 ft 431 kts 40°
2026-04-30 21:35 26.38112 -79.24447 21340 ft 434 kts 40°
2026-04-30 21:35 26.40262 -79.22136 21756 ft 436 kts 40°
2026-04-30 21:35 26.42451 -79.19749 22165 ft 439 kts 40°
2026-04-30 21:36 26.44631 -79.17343 22561 ft 442 kts 41°
2026-04-30 21:36 26.46804 -79.14925 22941 ft 445 kts 41°
2026-04-30 21:37 26.53419 -79.07512 24000 ft 452 kts 41°
2026-04-30 21:37 26.55636 -79.05021 24361 ft 453 kts 41°
2026-04-30 21:37 26.57864 -79.02517 24671 ft 456 kts 41°
2026-04-30 21:37 26.60098 -79.00006 24980 ft 458 kts 41°
2026-04-30 21:38 26.62318 -78.97511 25298 ft 460 kts 41°
2026-04-30 21:38 26.64577 -78.94969 25607 ft 461 kts 41°
2026-04-30 21:38 26.66843 -78.92419 25937 ft 463 kts 41°
2026-04-30 21:38 26.69116 -78.89860 26240 ft 465 kts 41°
2026-04-30 21:39 26.71398 -78.87289 26548 ft 467 kts 41°
2026-04-30 21:39 26.73689 -78.84706 26847 ft 468 kts 41°
2026-04-30 21:39 26.75986 -78.82114 27130 ft 470 kts 41°
2026-04-30 21:39 26.78298 -78.79505 27400 ft 473 kts 41°
2026-04-30 21:40 26.80614 -78.76890 27655 ft 475 kts 41°
2026-04-30 21:40 26.82943 -78.74258 27952 ft 476 kts 41°
2026-04-30 21:40 26.85276 -78.71619 28231 ft 478 kts 41°
2026-04-30 21:40 26.87618 -78.68969 28500 ft 479 kts 41°
2026-04-30 21:41 26.89969 -78.66307 28692 ft 482 kts 41°
2026-04-30 21:41 26.92334 -78.63629 28872 ft 485 kts 41°
2026-04-30 21:41 26.94708 -78.60938 28975 ft 488 kts 42°
2026-04-30 21:41 26.97089 -78.58236 29044 ft 488 kts 42°
2026-04-30 21:42 27.01037 -78.53750 29029 ft 486 kts 41°
2026-04-30 21:42 27.06562 -78.47467 29034 ft 484 kts 41°
2026-04-30 21:43 27.10494 -78.42991 29031 ft 484 kts 41°
2026-04-30 21:43 27.15222 -78.37605 29029 ft 484 kts 41°
2026-04-30 21:44 27.19952 -78.32208 29044 ft 485 kts 41°
2026-04-30 21:44 27.24686 -78.26799 29025 ft 486 kts 41°
2026-04-30 21:45 27.29425 -78.21378 29024 ft 486 kts 41°
2026-04-30 21:45 27.34164 -78.15956 29053 ft 486 kts 41°
2026-04-30 21:46 27.38884 -78.10545 29042 ft 486 kts 42°
2026-04-30 21:46 27.43625 -78.05094 29026 ft 487 kts 42°
2026-04-30 21:47 27.48316 -77.99696 29026 ft 487 kts 42°
2026-04-30 21:47 27.53048 -77.94246 29031 ft 487 kts 42°
2026-04-30 21:48 27.57795 -77.88774 29049 ft 489 kts 42°
2026-04-30 21:48 27.62559 -77.83275 29043 ft 491 kts 42°
2026-04-30 21:49 27.67332 -77.77757 29035 ft 492 kts 42°
2026-04-30 21:49 27.72106 -77.72228 29037 ft 492 kts 42°
2026-04-30 21:50 27.76876 -77.66693 29036 ft 492 kts 42°
2026-04-30 21:50 27.81647 -77.61162 29038 ft 491 kts 42°
2026-04-30 21:51 27.86412 -77.55628 29034 ft 493 kts 43°
2026-04-30 21:51 27.91170 -77.50090 29044 ft 496 kts 43°
2026-04-30 21:52 27.95987 -77.44477 29043 ft 499 kts 43°